Theta_e
310 310 310 310 310 310 311 311 311 311 312 312 312 312 313 313 313 313 314 315 313 312 312 313 315 316 317 320 319 318 313 314 317 316 315 317 316 318 318 318 318 318 318 318 318
310 310 310 311 311 311 312 312 312 312 312 312 312 312 312 312 313 314 314 313 312 312 312 312 316 317 318 319 320 317 313 316 316 315 317 317 316 316 316 316 317 317 317 317 317
310 310 311 312 312 312 312 312 312 311 311 312 312 313 313 314 313 315 313 312 312 312 313 314 317 318 317 318 320 319 316 317 318 319 318 317 317 318 317 313 317 317 317 317 317
311 312 312 312 311 311 311 312 313 314 316 317 318 319 319 319 313 313 313 314 312 312 313 314 317 317 317 316 319 318 318 319 318 318 317 317 318 317 317 317 316 316 317 317 316
312 312 311 311 311 313 315 317 318 319 319 319 318 318 318 318 318 317 315 314 312 312 312 314 316 317 316 316 315 315 315 317 317 317 317 316 315 316 317 316 316 316 316 316 316
311 310 311 314 316 317 318 318 317 317 316 316 316 315 314 315 318 318 316 313 312 312 312 315 316 316 316 316 315 315 315 315 315 315 315 314 314 316 316 316 316 315 316 316 315
311 315 317 317 317 317 316 316 316 317 317 317 317 315 313 315 317 317 317 315 313 313 313 315 315 316 315 314 315 315 313 312 314 314 313 314 314 313 316 315 315 316 316 316 315
318 317 316 316 316 316 317 317 318 319 320 320 319 316 314 315 315 315 315 314 313 312 313 315 316 316 315 315 314 313 312 313 313 314 315 314 312 312 316 315 316 316 316 316 312
315 315 315 316 317 318 319 320 321 321 321 320 317 313 315 312 312 312 312 312 312 311 312 313 315 314 314 312 311 312 311 312 313 314 314 313 312 313 316 315 315 315 315 311 311
315 316 316 317 319 320 321 322 323 322 321 316 313 315 313 312 312 311 312 311 311 311 312 312 313 310 309 309 311 313 312 313 313 313 312 312 310 310 314 314 314 313 312 309 308
316 316 317 318 321 322 323 323 324 323 321 320 320 313 320 319 317 316 313 311 312 313 312 313 310 311 310 310 311 312 313 312 311 312 311 311 310 311 312 314 313 310 308 306 306
317 318 319 321 323 322 322 323 323 322 320 320 320 321 322 322 317 314 312 312 313 312 312 311 311 311 311 313 313 313 312 312 311 312 312 311 311 310 311 309 308 306 306 305 305
319 320 321 323 323 322 322 322 320 320 317 320 319 320 319 319 318 316 312 312 312 311 311 311 313 313 315 314 314 313 313 312 313 311 310 309 308 309 307 307 306 305 305 305 304
319 320 323 323 322 322 322 322 320 320 317 319 315 312 312 314 313 313 312 313 314 313 313 314 314 314 313 313 311 313 311 311 312 310 310 309 310 309 308 307 305 304 304 303 303
320 322 322 322 324 323 322 322 320 318 320 315 310 309 309 312 310 309 311 312 312 312 312 313 311 311 312 311 310 311 310 310 310 309 310 310 309 309 308 308 306 304 303 302 302
322 323 322 322 323 323 323 321 320 318 322 313 309 310 308 308 308 309 310 310 310 311 310 310 311 310 310 311 311 309 310 309 308 307 311 311 311 312 309 308 305 304 303 303 302
324 323 322 321 321 321 321 320 323 324 320 314 311 310 310 309 308 309 309 309 311 314 313 313 311 310 311 312 309 309 309 313 313 311 313 314 314 313 312 306 306 303 303 302 302
323 321 320 321 321 321 319 320 323 320 320 314 312 311 313 311 310 309 311 312 311 313 314 316 316 311 309 312 312 309 310 313 314 317 314 311 315 315 306 305 304 303 302 301 300
321 320 320 319 318 320 319 322 319 319 317 318 317 318 317 317 318 311 309 313 314 311 314 313 314 309 309 308 310 314 314 314 314 311 309 312 312 307 306 304 303 302 301 300 300
318 317 317 317 315 317 316 319 317 316 315 316 319 317 317 316 317 315 315 313 311 311 311 314 313 314 310 311 309 313 312 313 313 310 310 310 310 309 308 305 302 300 300 299 298
316 314 313 315 313 312 314 314 313 313 313 315 315 316 314 313 314 313 313 313 311 310 313 314 313 312 312 312 312 308 310 312 312 312 313 308 308 309 309 305 302 300 300 300 299
312 307 309 310 310 311 312 310 310 310 310 311 312 312 313 312 311 311 311 312 313 310 313 313 311 307 311 310 309 309 310 309 313 311 309 311 312 306 305 304 302 301 301 300 299
307 307 306 309 308 309 309 310 310 309 310 311 311 311 310 309 310 309 309 310 311 310 311 311 309 301 304 303 308 310 311 311 310 309 308 308 307 303 302 302 303 302 302 299 298
305 307 305 311 309 308 308 309 310 310 309 310 310 310 309 309 308 309 309 309 309 308 308 309 308 302 304 302 306 305 305 304 306 306 302 305 304 303 301 302 302 303 301 297 295
303 302 305 307 308 308 308 308 308 309 309 309 308 308 307 307 307 307 307 306 306 306 306 305 302 305 304 303 302 301 302 302 302 302 301 302 301 300 300 297 296 297 297 297 295
300 301 303 303 306 306 307 307 306 308 308 306 307 307 307 306 304 302 302 303 303 302 303 303 297 298 293 300 300 300 299 298 298 299 299 300 300 300 296 296 295 294 293 292 291
299 298 302 302 302 305 305 306 305 304 303 304 305 305 303 301 302 301 301 300 300 300 300 299 295 289 291 297 293 291 295 297 297 297 297 297 297 293 293 294 292 292 292 292 292
Wind_Speed
3 3 3 3 3 4 4 5 5 6 7 8 8 10 11 11 13 15 15 5 4 5 5 4 4 2 2 2 1 1 4 2 4 5 6 5 5 3 4 8 13 5 14 19 21
5 5 5 5 5 6 6 7 7 8 8 8 10 10 12 13 14 10 3 2 2 3 2 3 2 1 1 3 3 3 3 5 2 1 3 9 4 7 7 15 21 23 19 10 15
7 6 7 7 7 8 8 9 9 9 10 10 10 11 11 12 12 2 1 2 3 2 1 4 3 6 3 4 6 5 5 3 10 17 15 6 13 9 9 6 22 25 24 24 25
9 9 9 9 9 9 9 9 10 10 10 11 11 11 10 9 2 0 1 2 4 4 6 6 7 4 3 3 11 3 12 16 12 15 16 6 10 11 15 27 30 29 27 27 25
12 12 11 10 9 9 9 10 10 11 12 12 12 11 10 5 8 10 10 10 9 9 6 6 7 7 2 4 6 4 6 7 13 14 21 21 12 12 25 30 23 21 22 24 21
14 12 10 10 10 10 10 10 10 10 11 11 11 11 8 6 10 10 9 8 6 6 5 9 3 3 7 5 2 6 8 12 13 22 26 13 12 5 20 23 23 18 19 16 16
13 12 11 10 10 9 9 9 9 10 9 10 9 10 10 12 12 10 10 9 9 8 9 8 11 9 3 5 4 7 5 7 18 18 7 6 3 8 20 21 17 23 21 24 27
14 13 11 10 9 9 9 9 9 9 10 9 9 9 7 8 8 9 10 9 8 9 10 11 10 11 5 5 7 4 1 3 6 6 3 3 6 10 16 14 23 29 30 29 12
15 13 11 10 9 9 9 9 9 10 10 9 7 6 5 5 5 5 5 5 3 7 7 7 8 4 1 4 4 2 3 5 7 4 3 4 6 12 13 22 27 30 26 8 2
14 13 12 10 8 8 8 9 9 9 8 5 7 3 5 5 5 5 3 4 2 5 5 4 3 2 3 3 4 5 4 4 6 6 6 5 10 9 23 24 28 14 11 11 14
16 14 12 9 7 7 6 6 5 2 7 7 4 6 9 9 7 7 5 9 6 3 3 4 4 6 11 9 3 3 4 5 5 9 6 9 7 12 21 26 25 9 18 20 18
16 14 12 10 7 6 5 3 4 2 8 14 18 20 19 16 4 4 10 8 7 5 6 3 6 11 5 5 4 2 4 7 6 4 2 6 12 14 18 7 11 24 22 19 18
17 15 13 11 8 7 7 5 3 3 3 7 8 6 8 7 4 9 13 7 5 6 7 7 7 6 5 4 4 5 5 5 8 3 5 5 7 7 6 19 23 21 20 19 20
18 16 12 10 8 8 8 7 3 5 2 4 3 1 4 6 3 8 13 5 4 8 5 6 6 7 4 4 6 4 3 6 4 3 3 4 5 6 7 7 7 16 20 21 21
20 16 13 13 9 12 6 6 2 1 4 1 4 5 5 4 7 1 8 5 3 4 4 5 7 4 3 7 7 7 2 1 2 3 3 4 1 7 8 3 4 12 20 21 20
25 20 19 17 15 13 10 7 2 3 7 2 4 4 4 3 3 5 3 2 2 1 2 5 2 5 8 4 3 3 2 4 2 3 2 5 6 5 5 7 7 13 20 17 16
28 25 21 17 16 15 12 8 2 4 2 4 4 4 4 5 3 4 4 3 4 3 3 3 4 3 3 2 4 4 3 3 3 1 5 1 0 7 5 7 15 16 19 15 12
31 23 21 21 16 14 15 3 6 6 5 3 4 5 5 7 5 7 4 3 5 2 1 4 6 3 1 3 5 5 5 4 5 3 4 6 5 3 8 23 26 23 18 13 11
27 25 24 21 18 18 14 5 8 6 2 5 3 4 5 6 6 5 7 7 7 9 8 4 4 0 2 1 4 3 3 3 3 0 2 4 3 4 7 11 17 19 15 12 9
25 18 15 14 16 12 1 5 4 4 3 3 8 7 8 5 8 8 7 2 5 1 3 4 2 3 3 3 3 3 4 3 2 2 4 5 5 4 6 11 9 11 14 12 7
18 9 13 18 16 8 4 6 6 10 4 4 4 2 2 1 5 3 4 1 4 3 6 4 3 4 5 3 7 1 2 1 2 4 4 2 5 0 6 11 10 10 13 11 8
21 4 17 23 7 5 7 7 7 7 5 3 3 3 3 2 1 5 7 2 5 10 6 3 4 3 8 3 2 5 5 6 3 4 3 1 8 4 6 13 17 15 15 14 12
18 7 20 31 5 7 4 5 8 5 5 6 8 6 5 7 4 7 5 1 6 4 6 4 1 2 9 4 4 1 0 3 2 2 4 3 8 4 10 11 17 16 17 15 12
9 4 6 19 12 3 6 7 6 13 6 9 4 4 4 5 4 3 3 3 4 6 6 2 3 6 8 4 3 3 6 1 3 2 3 10 11 19 18 4 10 16 17 14 13
8 5 9 6 10 10 3 4 10 7 8 13 4 8 6 6 4 5 3 4 5 11 4 4 4 3 3 0 3 5 10 13 6 11 8 20 17 19 14 4 2 7 12 13 13
9 6 7 1 9 14 9 5 7 9 9 5 5 7 7 7 7 4 6 3 3 1 4 2 2 2 5 4 5 10 18 12 15 15 16 19 21 15 4 5 6 9 11 10 7
13 7 8 6 6 7 6 9 8 7 3 6 11 5 5 4 9 11 8 8 5 6 4 5 5 3 6 1 5 8 13 17 10 12 7 8 9 2 5 5 7 6 5 5 8
Wind_Direction
290 294 300 306 312 316 321 322 322 322 324 325 325 326 326 325 322 317 315 296 276 266 236 217 207 150 148 151 297 334 59 257 258 33 331 10 32 4 311 274 293 278 273 291 295
266 277 286 294 300 303 305 306 308 309 311 314 316 318 321 324 324 322 349 39 83 112 157 179 134 111 208 214 172 126 123 235 173 109 324 326 345 332 321 303 293 294 292 287 334
263 269 280 288 291 292 294 297 300 303 306 309 311 313 320 327 328 49 86 97 112 102 144 170 177 215 239 219 195 189 199 216 300 322 332 308 308 310 299 291 281 290 294 296 304
265 271 274 278 283 287 291 296 302 304 305 305 306 307 313 318 300 267 243 274 281 264 272 226 204 188 225 223 218 209 231 249 275 299 317 275 293 289 271 273 288 285 287 291 294
269 274 278 280 283 289 295 300 302 303 304 304 302 301 302 278 252 257 267 281 278 263 254 198 204 209 258 263 326 228 251 280 290 295 283 288 277 265 281 293 312 304 288 287 290
266 268 272 279 286 289 294 298 300 300 301 301 300 295 281 240 266 268 272 269 251 235 222 190 193 253 290 254 228 318 323 305 301 287 280 266 280 232 276 309 316 319 304 309 301
263 266 269 272 274 281 288 294 299 300 299 298 294 284 267 265 258 262 269 266 256 237 211 201 232 264 320 326 330 324 331 316 273 272 236 241 308 231 276 305 304 319 312 313 326
259 260 261 265 272 280 288 295 296 296 295 290 283 272 255 253 256 259 261 255 244 234 230 214 229 247 248 298 345 312 64 314 288 13 261 172 251 267 286 292 307 297 299 309 333
249 248 250 253 261 276 289 293 293 291 284 277 262 237 254 229 235 232 229 230 217 215 224 227 234 222 237 94 1 309 239 224 311 2 161 188 248 256 281 288 284 287 303 7 127
239 241 243 247 260 278 289 291 288 277 261 245 228 246 239 233 223 206 187 195 179 151 129 149 145 88 25 107 221 220 246 291 279 305 341 285 256 263 274 284 284 301 332 88 64
235 236 240 243 252 278 285 290 282 241 234 225 220 247 278 250 247 264 220 173 145 153 146 190 106 206 220 205 222 275 239 256 263 277 306 281 302 291 269 271 289 19 113 89 70
233 235 238 239 248 269 264 237 245 231 293 256 257 256 256 255 238 213 164 168 166 194 135 79 222 225 233 246 237 306 314 284 287 269 345 296 298 278 299 40 83 104 99 95 88
232 232 233 233 237 247 233 234 213 315 269 287 229 214 212 247 220 196 185 179 188 200 192 168 216 171 182 257 303 262 225 248 238 320 298 313 292 284 46 84 85 91 97 89 87
234 234 232 227 225 211 210 200 220 324 1 249 200 170 175 167 191 176 191 198 219 211 233 237 250 232 257 254 162 267 260 240 263 58 225 64 284 295 129 100 89 96 92 88 83
228 228 231 204 184 193 183 187 242 23 320 181 144 148 155 155 140 138 180 184 198 216 120 244 172 162 166 221 162 223 58 296 222 200 349 278 136 260 129 140 104 92 89 81 78
228 229 207 198 192 190 202 193 208 72 246 143 135 163 126 171 144 121 155 178 188 331 227 235 191 163 204 220 185 114 30 298 73 120 299 239 181 280 181 183 136 106 100 94 85
235 213 191 193 201 201 192 169 147 209 236 176 172 158 196 172 176 164 160 190 167 132 240 280 203 205 177 104 29 78 69 322 1 15 227 302 192 248 333 112 138 122 111 105 95
199 199 198 196 190 191 175 138 205 201 242 137 129 165 180 156 203 183 178 228 242 166 162 213 317 148 169 159 187 183 167 163 237 226 267 328 256 302 74 94 109 115 115 109 91
195 190 187 185 183 179 177 202 193 207 176 147 122 157 212 215 175 148 202 198 207 181 176 168 239 198 67 117 135 198 183 171 102 335 46 235 270 83 100 101 113 124 130 125 115
167 157 174 192 180 183 197 207 225 199 110 92 191 183 193 213 166 174 201 195 155 78 194 199 308 219 178 135 37 149 170 68 27 212 241 275 262 219 183 150 149 151 145 143 134
185 154 191 177 164 164 202 222 243 251 177 175 226 244 205 143 171 199 218 186 137 116 98 135 121 257 126 175 184 65 217 139 149 178 202 240 261 117 123 164 164 159 165 180 188
164 138 176 171 154 199 209 190 209 182 162 176 158 185 183 108 285 215 209 152 135 140 146 197 156 227 235 240 176 186 227 186 213 241 252 243 260 134 131 144 157 185 198 202 216
153 127 172 174 183 210 223 196 209 170 177 175 201 190 174 189 226 205 189 83 126 91 151 169 176 21 330 22 30 77 172 126 119 98 216 225 260 170 126 160 197 197 214 205 205
152 136 176 196 223 198 196 204 198 203 181 193 192 181 163 198 212 194 129 179 82 109 122 101 164 169 212 168 114 286 292 275 126 179 230 246 281 285 294 222 267 246 211 194 186
180 196 172 190 213 211 186 214 190 179 199 194 206 189 168 208 215 211 159 108 93 148 109 134 201 216 257 350 125 208 257 273 214 243 224 267 268 269 291 312 191 168 179 188 201
192 175 172 156 174 191 207 213 193 194 161 198 187 177 183 197 192 192 128 149 171 191 135 139 227 97 301 209 248 262 261 262 256 259 253 255 264 276 247 257 208 193 180 172 160
209 180 152 198 166 170 217 201 196 160 79 167 193 174 140 138 122 122 118 121 133 155 150 153 136 89 264 195 58 309 250 245 234 233 239 246 255 213 266 232 162 169 210 261 279